RA2948G UIII-UIII

Flight info

Callsign RA2948G
Flight time N/A
Altitude 7000
Route BD DCT IKT
Aircraft C172/L-SDE3FGHIRWY/LB1

Departure

Time 2026-05-07 13:10
Airport Irkutsk International Airport (UIII)

Arrival

Time N/A
Airport Irkutsk International Airport (UIII)
Time Latitude Longitude Altitude Speed Heading
2026-05-07 13:00 52.27199 104.36381 1646 ft 0 kts 200°
2026-05-07 13:06 52.27166 104.36370 1646 ft 12 kts 159°
2026-05-07 13:06 52.27126 104.36526 1646 ft 20 kts 109°
2026-05-07 13:07 52.27075 104.36748 1646 ft 19 kts 111°
2026-05-07 13:07 52.27035 104.36927 1646 ft 15 kts 108°
2026-05-07 13:07 52.27005 104.37066 1646 ft 11 kts 108°
2026-05-07 13:07 52.26988 104.37176 1646 ft 12 kts 82°
2026-05-07 13:08 52.27046 104.37325 1646 ft 20 kts 53°
2026-05-07 13:08 52.27136 104.37549 1647 ft 27 kts 47°
2026-05-07 13:08 52.27168 104.37799 1648 ft 22 kts 120°
2026-05-07 13:08 52.27132 104.37899 1649 ft 0 kts 113°
2026-05-07 13:09 52.27121 104.37939 1649 ft 21 kts 113°
2026-05-07 13:09 52.26991 104.38433 1672 ft 66 kts 114°
2026-05-07 13:09 52.26813 104.39172 1873 ft 71 kts 114°
2026-05-07 13:09 52.26734 104.39976 2130 ft 79 kts 70°
2026-05-07 13:10 52.27235 104.40225 2336 ft 88 kts 329°
2026-05-07 13:10 52.27773 104.39774 2558 ft 90 kts 319°
2026-05-07 13:10 52.28133 104.38960 2778 ft 88 kts 296°
2026-05-07 13:10 52.28444 104.38122 3005 ft 85 kts 297°
2026-05-07 13:11 52.28747 104.37307 3241 ft 83 kts 298°
2026-05-07 13:11 52.29027 104.36501 3462 ft 80 kts 279°
2026-05-07 13:11 52.29095 104.35632 3659 ft 78 kts 286°
2026-05-07 13:11 52.29205 104.34787 3864 ft 76 kts 281°
2026-05-07 13:12 52.29318 104.33953 4051 ft 75 kts 277°
2026-05-07 13:12 52.29430 104.33131 4249 ft 74 kts 278°
2026-05-07 13:12 52.29540 104.32317 4449 ft 72 kts 279°
2026-05-07 13:12 52.29647 104.31529 4670 ft 69 kts 281°
2026-05-07 13:13 52.29751 104.30761 4866 ft 69 kts 282°